Hereford, TX

8:49 PM CST on November 21, 2017 (GMT -0600)
Hereford Municipal

Weather History for KHRX - July, 2013

Change the Weather History Date:

Wednesday, July 17, 2013

  Actual Average (KCVN) Record (KCVN)
Temperature  
Mean Temperature 68 °F -  
Max Temperature 77 °F 91 °F 105 °F (1934)
Min Temperature 61 °F 63 °F 56 °F (1953)
Cooling Degree Days 4    
Growing Degree Days 18 (Base 50)    
Moisture  
Dew Point 63 °F    
Average Humidity 86    
Maximum Humidity 96    
Minimum Humidity 63    
Precipitation  
Precipitation 1.18 in - - ()
Sea Level Pressure  
Sea Level Pressure 30.34 in    
Wind  
Wind Speed 8 mph (SE)    
Max Wind Speed 17 mph    
Max Gust Speed 21 mph    
Visibility 9 miles    
Events Rain , Thunderstorm    
Averages and records for this station are not official NWS values.
T = Trace of Precipitation, MM = Missing Value Source: NWS Daily Summary

Daily Weather History Graph

Daily Weather History Graph

Search for Another Location

Airport or City:

Trip Planner

Search our weather history database for the weather conditions in past years. The results will help you decide how hot, cold, wet, or windy it might be!

Date:

Astronomy

Jul. 17, 2013 Rise Set
Actual Time 6:48 AM CDT 9:02 PM CDT
Civil Twilight 6:19 AM CDT 9:30 PM CDT
Nautical Twilight 5:44 AM CDT 10:05 PM CDT
Astronomical Twilight 5:06 AM CDT 10:44 PM CDT
Moon 3:56 PM CDT (7/17) 1:52 AM CDT (7/17)
Length of Visible Light 15h 11m
Length of Day
14h 13m
Waxing Gibbous, 67% of the Moon is Illuminated
Jul 17
Waxing Gibbous
Jul 22
Full
Jul 29
Last Quarter
Aug 6
New
Aug 14
First Quarter

Hourly Weather History & Observations

Time (CDT) Temp. Dew Point Humidity Pressure Visibility Wind Dir Wind Speed Gust Speed Precip Events Conditions
12:15 AM 63.0 °F 61.2 °F 94% 30.33 in 7.0 mi SSE 8.1 mph - 0.02 in Rain Rain
12:35 AM 63.7 °F 61.9 °F 94% 30.33 in 5.0 mi SE 6.9 mph - 0.03 in Rain Rain
12:55 AM 63.3 °F 61.7 °F 94% 30.32 in 3.0 mi SE 12.7 mph - 0.22 in Rain Rain
1:15 AM 63.3 °F 61.7 °F 94% 30.33 in 10.0 mi ESE 9.2 mph - 0.03 in   Drizzle
1:35 AM 63.0 °F 61.5 °F 95% 30.33 in 7.0 mi SSE 11.5 mph - 0.05 in   Drizzle
1:55 AM 62.6 °F 61.0 °F 94% 30.33 in 7.0 mi SSE 9.2 mph - 0.09 in Rain Rain
2:15 AM 62.6 °F 61.0 °F 94% 30.33 in 5.0 mi South 3.5 mph - 0.09 in Rain Rain
2:35 AM 62.6 °F 61.0 °F 94% 30.33 in 3.0 mi Calm Calm - 0.22 in Rain Rain
2:55 AM 62.6 °F 61.0 °F 94% 30.31 in 4.0 mi Calm Calm - 0.30 in Rain Rain
3:15 AM 62.8 °F 61.2 °F 94% 30.32 in 7.0 mi ENE 3.5 mph - 0.04 in Rain Rain
3:35 AM 62.6 °F 61.0 °F 94% 30.31 in 10.0 mi ENE 4.6 mph - 0.06 in Rain Light Rain
3:55 AM 62.8 °F 61.2 °F 94% 30.31 in 10.0 mi East 3.5 mph - 0.07 in Rain Rain
4:15 AM 63.5 °F 61.7 °F 94% 30.32 in 10.0 mi East 6.9 mph - N/A Rain Light Rain
4:35 AM 63.5 °F 61.7 °F 94% 30.32 in 10.0 mi ESE 8.1 mph - 0.01 in Rain Light Rain
4:55 AM 63.5 °F 61.9 °F 94% 30.32 in 10.0 mi East 5.8 mph - 0.01 in   Overcast
5:15 AM 63.5 °F 61.7 °F 94% 30.31 in 10.0 mi East 6.9 mph - N/A Rain Light Rain
5:35 AM 63.7 °F 62.2 °F 95% 30.32 in 10.0 mi ESE 9.2 mph - 0.04 in Rain Rain
5:55 AM 63.5 °F 62.1 °F 95% 30.33 in 7.0 mi SE 9.2 mph - 0.09 in Rain Rain
6:15 AM 62.6 °F 61.2 °F 95% 30.33 in 7.0 mi SE 9.2 mph - 0.10 in Rain Rain
6:35 AM 63.0 °F 61.7 °F 96% 30.35 in 10.0 mi SSE 6.9 mph - 0.12 in Rain Light Rain
6:55 AM 63.0 °F 61.7 °F 96% 30.35 in 5.0 mi South 4.6 mph - 0.25 in Rain Light Rain
7:15 AM 63.1 °F 61.7 °F 95% 30.35 in 2.5 mi ESE 3.5 mph - 0.06 in Rain Rain
7:35 AM 62.6 °F 61.0 °F 94% 30.36 in 10.0 mi SE 5.8 mph - 0.08 in Rain Light Rain
7:55 AM 62.8 °F 61.3 °F 95% 30.35 in 10.0 mi East 6.9 mph - 0.11 in Rain Rain
8:15 AM 63.1 °F 61.7 °F 95% 30.35 in 10.0 mi East 3.5 mph - 0.02 in Rain Light Rain
8:35 AM 62.2 °F 60.8 °F 95% 30.35 in 10.0 mi ESE 8.1 mph - 0.02 in Rain Light Rain
8:55 AM 61.7 °F 60.1 °F 94% 30.36 in 10.0 mi SSE 5.8 mph - 0.04 in Rain Rain
9:15 AM 62.2 °F 60.8 °F 95% 30.36 in 10.0 mi SSW 5.8 mph - N/A   Drizzle
9:35 AM 63.7 °F 62.2 °F 95% 30.36 in 10.0 mi SSW 4.6 mph - N/A Rain Light Rain
9:55 AM 64.8 °F 63.1 °F 94% 30.36 in 10.0 mi South 6.9 mph - N/A   Light Drizzle
10:15 AM 64.9 °F 63.5 °F 95% 30.36 in 10.0 mi SSE 5.8 mph - N/A   Overcast
10:35 AM 65.3 °F 63.7 °F 94% 30.36 in 10.0 mi South 6.9 mph - N/A   Light Drizzle
10:55 AM 65.5 °F 63.7 °F 94% 30.37 in 10.0 mi SSE 8.1 mph - N/A   Overcast
11:15 AM 68.9 °F 61.5 °F 77% 30.37 in 10.0 mi SSE 10.4 mph - N/A   Overcast
11:35 AM 68.4 °F 61.0 °F 77% 30.37 in 10.0 mi SSE 11.5 mph - N/A   Overcast
11:55 AM 69.6 °F 61.7 °F 76% 30.37 in 10.0 mi SE 9.2 mph - N/A   Overcast
12:15 PM 71.8 °F 63.0 °F 74% 30.36 in 10.0 mi ESE 12.7 mph - N/A   Overcast
12:35 PM 72.1 °F 62.8 °F 72% 30.36 in 10.0 mi ESE 13.8 mph - N/A   Mostly Cloudy
12:55 PM 73.6 °F 63.1 °F 70% 30.36 in 10.0 mi ESE 13.8 mph 19.6 mph N/A   Mostly Cloudy
1:15 PM 73.6 °F 63.1 °F 70% 30.36 in 10.0 mi ESE 16.1 mph - N/A   Mostly Cloudy
1:35 PM 75.2 °F 63.5 °F 67% 30.35 in 10.0 mi ESE 13.8 mph 18.4 mph N/A   Scattered Clouds
1:55 PM 75.2 °F 62.8 °F 65% 30.35 in 10.0 mi ESE 13.8 mph 20.7 mph N/A   Mostly Cloudy
2:15 PM 74.5 °F 63.9 °F 69% 30.34 in 10.0 mi East 17.3 mph - N/A   Overcast
2:35 PM 73.4 °F 64.2 °F 73% 30.34 in 10.0 mi ESE 17.3 mph - N/A   Overcast
2:55 PM 70.3 °F 65.3 °F 84% 30.35 in 10.0 mi SSE 10.4 mph - N/A   Mostly Cloudy
3:15 PM 71.4 °F 64.6 °F 79% 30.35 in 10.0 mi SE 12.7 mph 19.6 mph N/A   Scattered Clouds
3:35 PM 68.9 °F 64.9 °F 87% 30.34 in 10.0 mi ESE 12.7 mph - N/A Rain Light Rain
3:55 PM 68.9 °F 62.8 °F 81% 30.33 in 10.0 mi SE 8.1 mph - N/A   Clear
4:15 PM 70.0 °F 63.3 °F 79% 30.33 in 10.0 mi SE 6.9 mph - N/A   Scattered Clouds
4:35 PM 72.3 °F 64.0 °F 75% 30.32 in 10.0 mi SE 9.2 mph - N/A   Scattered Clouds
4:55 PM 74.1 °F 64.0 °F 71% 30.32 in 10.0 mi ESE 5.8 mph - N/A   Scattered Clouds
5:15 PM 76.6 °F 63.1 °F 63% 30.31 in 10.0 mi ESE 12.7 mph 16.1 mph N/A   Scattered Clouds
5:35 PM 75.4 °F 64.2 °F 68% 30.31 in 10.0 mi ESE 12.7 mph - N/A   Mostly Cloudy
5:55 PM 74.3 °F 63.7 °F 69% 30.31 in 10.0 mi ESE 12.7 mph 16.1 mph N/A   Scattered Clouds
6:15 PM 74.3 °F 64.2 °F 71% 30.31 in 10.0 mi ESE 15.0 mph - N/A   Mostly Cloudy
6:35 PM 73.4 °F 63.9 °F 72% 30.31 in 10.0 mi SE 12.7 mph - N/A   Mostly Cloudy
6:55 PM 72.1 °F 64.2 °F 76% 30.31 in 10.0 mi SE 16.1 mph - N/A   Mostly Cloudy
7:15 PM 70.3 °F 64.9 °F 83% 30.32 in 10.0 mi SE 13.8 mph - N/A   Mostly Cloudy
7:35 PM 70.3 °F 64.2 °F 81% 30.32 in 10.0 mi ESE 11.5 mph - N/A   Mostly Cloudy
7:55 PM 70.0 °F 63.3 °F 79% 30.32 in 10.0 mi SE 10.4 mph - N/A Thunderstorm Clear
8:15 PM 69.8 °F 64.0 °F 82% 30.32 in 10.0 mi SE 12.7 mph - N/A   Mostly Cloudy
8:35 PM 69.4 °F 64.6 °F 84% 30.32 in 10.0 mi SE 9.2 mph - N/A   Overcast
8:55 PM 69.1 °F 64.8 °F 86% 30.32 in 10.0 mi SE 10.4 mph - N/A   Scattered Clouds
9:15 PM 68.5 °F 64.4 °F 87% 30.33 in 10.0 mi ESE 6.9 mph - N/A   Clear
9:35 PM 68.5 °F 64.4 °F 87% 30.33 in 10.0 mi SE 6.9 mph - N/A   Scattered Clouds
9:55 PM 67.3 °F 63.5 °F 88% 30.33 in 10.0 mi SE 8.1 mph - N/A   Scattered Clouds
10:15 PM 67.1 °F 63.9 °F 89% 30.35 in 10.0 mi SE 9.2 mph - N/A   Mostly Cloudy
10:35 PM 67.3 °F 63.7 °F 88% 30.35 in 10.0 mi SSE 10.4 mph - N/A   Overcast
10:55 PM 67.1 °F 63.1 °F 87% 30.35 in 10.0 mi SSE 6.9 mph - N/A   Overcast
11:15 PM 66.7 °F 63.5 °F 89% 30.35 in 10.0 mi SE 5.8 mph - N/A   Overcast
11:35 PM 66.4 °F 63.0 °F 89% 30.34 in 10.0 mi SSE 8.1 mph - N/A   Scattered Clouds
11:55 PM 65.8 °F 63.0 °F 90% 30.33 in 10.0 mi SE 5.8 mph - N/A   Clear